TimeEDT,TemperatureF,Dew PointF,Humidity,Sea Level PressureIn,VisibilityMPH,Wind Direction,Wind SpeedMPH,Gust SpeedMPH,PrecipitationIn,Events,Conditions,WindDirDegrees,DateUTC
12:51 AM,59.0,57.0,93,30.07,10.0,Calm,Calm,-,N/A,,Clear,0,2013-07-27 04:51:00
1:51 AM,59.0,57.0,93,30.06,10.0,Calm,Calm,-,N/A,,Clear,0,2013-07-27 05:51:00
2:51 AM,59.0,57.0,93,30.04,10.0,Calm,Calm,-,N/A,,Overcast,0,2013-07-27 06:51:00
3:51 AM,57.9,57.0,97,30.04,6.0,Calm,Calm,-,N/A,,Clear,0,2013-07-27 07:51:00
4:48 AM,59.0,57.2,94,30.04,2.5,Calm,Calm,-,N/A,,Scattered Clouds,0,2013-07-27 08:48:00
4:51 AM,59.0,57.0,93,30.02,2.5,Calm,Calm,-,N/A,,Mostly Cloudy,0,2013-07-27 08:51:00
4:59 AM,59.0,57.2,94,30.04,6.0,Calm,Calm,-,N/A,,Mostly Cloudy,0,2013-07-27 08:59:00
5:51 AM,57.9,57.0,97,30.02,8.0,Calm,Calm,-,N/A,,Scattered Clouds,0,2013-07-27 09:51:00
6:51 AM,60.1,57.9,93,30.02,8.0,Calm,Calm,-,0.01,Rain,Light Rain,0,2013-07-27 10:51:00
7:51 AM,61.0,59.0,93,30.02,10.0,Calm,Calm,-,0.01,,Overcast,0,2013-07-27 11:51:00
8:51 AM,63.0,61.0,93,30.03,10.0,Calm,Calm,-,0.00,,Overcast,0,2013-07-27 12:51:00
9:51 AM,66.9,62.1,84,30.03,10.0,South,5.8,-,N/A,,Partly Cloudy,180,2013-07-27 13:51:00
10:51 AM,69.1,62.1,78,30.01,10.0,South,5.8,-,N/A,,Clear,170,2013-07-27 14:51:00
11:51 AM,70.0,63.0,78,30.01,10.0,South,9.2,-,N/A,,Clear,170,2013-07-27 15:51:00
12:51 PM,70.0,62.1,76,29.99,10.0,SSE,3.5,-,N/A,,Overcast,160,2013-07-27 16:51:00
1:51 PM,71.1,62.1,73,30.01,10.0,SSW,4.6,-,0.00,Rain,Light Rain,200,2013-07-27 17:51:00
2:51 PM,66.9,63.0,87,30.00,10.0,SSE,4.6,-,0.08,Rain,Rain,150,2013-07-27 18:51:00
3:51 PM,68.0,63.0,84,29.97,10.0,Variable,3.5,-,0.02,,Clear,0,2013-07-27 19:51:00
4:51 PM,70.0,64.0,81,29.95,10.0,South,5.8,-,N/A,,Clear,170,2013-07-27 20:51:00
5:51 PM,71.1,63.0,75,29.95,10.0,SSE,5.8,-,N/A,,Clear,150,2013-07-27 21:51:00
6:51 PM,72.0,62.1,71,29.95,10.0,Calm,Calm,-,N/A,,Scattered Clouds,0,2013-07-27 22:51:00
7:51 PM,70.0,63.0,78,29.95,10.0,Calm,Calm,-,N/A,,Scattered Clouds,0,2013-07-27 23:51:00
8:51 PM,68.0,62.1,81,29.95,10.0,SE,3.5,-,N/A,,Scattered Clouds,140,2013-07-28 00:51:00
9:51 PM,66.0,62.1,87,29.96,10.0,SE,5.8,-,N/A,,Scattered Clouds,140,2013-07-28 01:51:00
10:51 PM,66.0,62.1,87,29.96,10.0,ESE,3.5,-,N/A,,Overcast,120,2013-07-28 02:51:00
11:51 PM,64.0,60.1,87,29.95,10.0,SE,3.5,-,N/A,,Partly Cloudy,140,2013-07-28 03:51:00